Back to catalog

FENGYUN 1C DEB

AliveSSO
NORAD 29819·DEBRIS·🇨🇳 China

Launched May 10, 1999 from Taiyuan Satellite Launch Center

Loading…

Next Passes (next 24 hours)

TLE

FreshSource: Space-Track

Epoch: Sep 14, 2026, 09:26 UTC

1 29819U 99025DM  26257.39347367  .00000502  00000-0  30151-3 0  9998
2 29819  98.7625 235.3427 0190764  16.1948 138.8429 14.02462298  4849

Track FENGYUN 1C DEB in real time with AllMySat

Download on the App Store